This demonstration page uses our WeatherBlox Daily Observations layout. Learn more.

Left ArrowRight Arrow

Hourly Observations for June 22, 2017

Temp ( °F °C ) Dew Point ( °F °C ) Humidity (%) Winds ( mph kmh ) Pressure ( in mb ) Visibility ( mi km ) Precip ( " mm )
12:06 am 00:06 Partly Cloudy 77 25 70 21 79 79 SSW 7 11 29.94 1014 10 16 N/A
12:27 am 00:27 Clear 77 25 70 21 79 79 SSW 5 7 29.94 1014 10 16 N/A
12:47 am 00:47 Clear 77 25 70 21 79 79 SSW 6 9 29.94 1014 10 16 N/A
1:07 am 01:07 Clear 75 24 70 21 83 83 SSW 7 11 29.94 1014 10 16 N/A
1:27 am 01:27 Clear 75 24 70 21 83 83 SSW 8 13 29.97 1015 10 16 N/A
1:46 am 01:46 Clear 75 24 68 20 78 78 SSW 9 15 29.97 1015 10 16 N/A
2:07 am 02:07 Clear 75 24 68 20 78 78 SSW 8 13 29.97 1015 10 16 N/A
2:27 am 02:27 Clear 75 24 68 20 78 78 SW 10 17 29.94 1014 10 16 N/A
2:47 am 02:47 Clear 75 24 68 20 78 78 SW 9 15 29.97 1015 10 16 N/A
3:07 am 03:07 Clear 75 24 66 19 74 74 SW 9 15 29.94 1014 10 16 N/A
3:26 am 03:26 Clear 75 24 66 19 74 74 SW 9 15 29.94 1014 10 16 N/A
3:47 am 03:47 Clear 75 24 66 19 74 74 SW 9 15 29.97 1015 10 16 N/A
4:07 am 04:07 Clear 73 23 68 20 83 83 SSW 6 9 29.97 1015 10 16 N/A
4:27 am 04:27 Clear 72 22 68 20 88 88 S 6 9 29.97 1015 10 16 N/A
4:46 am 04:46 Clear 72 22 68 20 88 88 S 7 11 29.97 1015 10 16 N/A
5:07 am 05:07 Clear 72 22 68 20 88 88 S 6 9 29.94 1014 10 16 N/A
5:27 am 05:27 Clear 70 21 68 20 94 94 S 6 9 29.97 1015 10 16 N/A
5:47 am 05:47 Clear 70 21 66 19 88 88 S 6 9 29.94 1014 10 16 N/A
6:07 am 06:07 Clear 70 21 66 19 88 88 S 5 7 29.94 1014 10 16 N/A
6:26 am 06:26 Sunny 70 21 66 19 88 88 S 7 11 29.94 1014 10 16 N/A
6:47 am 06:47 Sunny 70 21 66 19 88 88 S 5 7 29.94 1014 10 16 N/A
7:07 am 07:07 Sunny 70 21 66 19 88 88 S 5 7 29.94 1014 10 16 N/A
7:27 am 07:27 Sunny 70 21 66 19 88 88 S 7 11 29.94 1014 10 16 N/A
7:47 am 07:47 Sunny 72 22 66 19 83 83 SSW 7 11 29.94 1014 10 16 N/A
8:06 am 08:06 Sunny 72 22 66 19 83 83 SSW 8 13 29.94 1014 10 16 N/A
8:27 am 08:27 Sunny 73 23 68 20 83 83 SSW 9 15 29.97 1015 10 16 N/A
8:47 am 08:47 Sunny 73 23 68 20 83 83 SW 8 13 29.97 1015 10 16 N/A
9:07 am 09:07 Sunny 75 24 68 20 78 78 SW 12 19 29.97 1015 10 16 N/A
9:27 am 09:27 Sunny 77 25 68 20 74 74 SW 12 19 29.97 1015 10 16 N/A
9:46 am 09:46 Partly Cloudy 77 25 68 20 74 74 SSW 10 17 29.97 1015 10 16 N/A
10:07 am 10:07 Sunny 77 25 68 20 74 74 SW 10 17 29.97 1015 10 16 N/A
10:27 am 10:27 Sunny 77 25 68 20 74 74 SSW 10 17 29.97 1015 10 16 N/A
10:47 am 10:47 Partly Cloudy 79 26 68 20 70 70 SW 10 17 29.94 1014 10 16 N/A
11:07 am 11:07 Mostly Cloudy 81 27 70 21 70 70 SSW 10 17 29.94 1014 10 16 N/A
11:27 am 11:27 Mostly Cloudy 81 27 70 21 70 70 SSW 13 20 29.94 1014 10 16 N/A
11:47 am 11:47 Mostly Cloudy 81 27 70 21 70 70 SSW 10 17 29.94 1014 10 16 N/A
12:06 pm 12:06 Cloudy 81 27 70 21 70 70 SW 10 17 29.94 1014 10 16 N/A
12:27 pm 12:27 Mostly Cloudy 81 27 70 21 70 70 SSW 13 20 29.94 1014 10 16 N/A
12:47 pm 12:47 Cloudy 82 28 68 20 62 62 SSW 14 22 29.94 1014 10 16 N/A
1:07 pm 13:07 Mostly Cloudy 84 29 70 21 62 62 S 14 22 29.94 1014 10 16 N/A
1:27 pm 13:27 Mostly Cloudy 82 28 68 20 62 62 S 15 24 29.94 1014 10 16 N/A
1:46 pm 13:46 Mostly Cloudy 82 28 68 20 62 62 S 16 26 29.94 1014 10 16 N/A
2:07 pm 14:07 Mostly Cloudy 82 28 68 20 62 62 SSW 15 24 29.91 1013 10 16 N/A
2:27 pm 14:27 Cloudy 81 27 68 20 66 66 S 10 17 29.91 1013 10 16 N/A
2:46 pm 14:46 Mostly Cloudy 82 28 68 20 62 62 SSW 16 26 29.91 1013 10 16 N/A
3:07 pm 15:07 Mostly Cloudy 82 28 68 20 62 62 SSW 16 26 29.91 1013 10 16 N/A
3:27 pm 15:27 Mostly Cloudy 84 29 68 20 58 58 SSW 18 30 29.88 1012 10 16 N/A
3:47 pm 15:47 Mostly Cloudy 81 27 68 20 66 66 S 15 24 29.88 1012 7 11 N/A
4:07 pm 16:07 Mostly Cloudy 82 28 70 21 66 66 S 13 20 29.88 1012 10 16 N/A
4:26 pm 16:26 Partly Cloudy 82 28 68 20 62 62 S 20 31 29.88 1012 10 16 N/A
4:47 pm 16:47 Partly Cloudy 82 28 68 20 62 62 S 16 26 29.85 1011 10 16 N/A
5:07 pm 17:07 Mostly Cloudy 81 27 68 20 66 66 S 18 30 29.88 1012 10 16 N/A
5:26 pm 17:26 Cloudy 77 25 68 20 74 74 S 17 28 29.88 1012 10 16 N/A
5:47 pm 17:47 Mostly Cloudy 79 26 68 20 70 70 S 17 28 29.88 1012 10 16 N/A
6:07 pm 18:07 Cloudy 79 26 68 20 70 70 SSW 12 19 29.88 1012 10 16 N/A
6:26 pm 18:26 Cloudy 77 25 68 20 74 74 SSW 15 24 29.85 1011 10 16 N/A
6:47 pm 18:47 Cloudy 77 25 68 20 74 74 S 14 22 29.85 1011 10 16 N/A
7:07 pm 19:07 Cloudy 77 25 68 20 74 74 SSW 13 20 29.85 1011 10 16 N/A
7:26 pm 19:26 Cloudy 77 25 68 20 74 74 S 10 17 29.85 1011 10 16 N/A
7:47 pm 19:47 Cloudy 75 24 68 20 78 78 SSW 13 20 29.85 1011 10 16 N/A
8:07 pm 20:07 Cloudy 75 24 68 20 78 78 SSW 14 22 29.85 1011 10 16 N/A
8:27 pm 20:27 Cloudy 75 24 68 20 78 78 SSW 13 20 29.85 1011 10 16 N/A
8:47 pm 20:47 Cloudy 73 23 68 20 83 83 S 12 19 29.83 1010 10 16 N/A
9:06 pm 21:06 Cloudy 73 23 68 20 83 83 S 10 17 29.83 1010 10 16 N/A
9:27 pm 21:27 Cloudy 73 23 68 20 83 83 S 10 17 29.83 1010 10 16 N/A
9:47 pm 21:47 Cloudy 73 23 68 20 83 83 S 14 22 29.83 1010 10 16 N/A
10:06 pm 22:06 Cloudy 72 22 68 20 88 88 S 10 17 29.83 1010 10 16 N/A
10:27 pm 22:27 Cloudy 72 22 68 20 88 88 S 14 22 29.83 1010 10 16 N/A
10:47 pm 22:47 Cloudy 72 22 68 20 88 88 S 12 19 29.83 1010 10 16 N/A
11:06 pm 23:06 Cloudy 72 22 68 20 88 88 S 12 19 29.83 1010 10 16 N/A
11:27 pm 23:27 Cloudy 72 22 68 20 88 88 S 9 15 29.83 1010 10 16 N/A
11:47 pm 23:47 Cloudy 72 22 68 20 88 88 S 12 19 29.83 1010 7 11 N/A

Powered by AerisWeather